Regional Weather Roundup
Issued by NWS

Home | Current Version | Previous Version | Graphics & Text | Print | Product List | Glossary On
Versions: 1 2 3 4 5 6 7 8 9 10 11 12 13 14 15 16 17 18 19 20 21 22 23 24 25 26 27
000
ASUS45 KBOU 242207
RWRCO

WEATHER ROUNDUP FOR COLORADO
NATIONAL WEATHER SERVICE DENVER/BOULDER CO
400 PM MDT WED MAY 24 2017

NOTE: "FAIR" INDICATES FEW OR NO CLOUDS BELOW 12000 FEET WITH NO
SIGNIFICANT WEATHER AND/OR OBSTRUCTIONS TO VISIBILITY.

COZ001>005-013-030-031-242300-
...NORTHWEST COLORADO...

CITY           SKY/WX    TMP DP  RH WIND       PRES   REMARKS
CRAIG          FAIR      77  28  16 W23G36    29.75F
HAYDEN         FAIR      73  32  21 W23G30    29.77F
MEEKER         FAIR      79  30  16 SW15G24   29.77F
RABBIT EARS PA FAIR      54  30  40 W12G29    30.02F
STEAMBOAT SPGS FAIR      71  33  24 W18G28    29.80F
WALDEN           N/A     68  30  24 W29G36    29.87F
$$

COZ006>008-011-242300-
...WEST CENTRAL VALLEYS...

CITY           SKY/WX    TMP DP  RH WIND       PRES   REMARKS
GRAND JUNCTION FAIR      88  28  11 W21G28    29.71F
MONTROSE       FAIR      81  26  13 W10G24    29.79F
EAGLE          SUNNY     75  30  19 W28G35    29.82F
RIFLE          FAIR      84  25  11 SW20G35   29.75F
DELTA          FAIR      90  23   9 W13G23    29.74F
NUCLA          FAIR      84  27  12 SW18G29   29.85F
$$

COZ017>023-064>068-242300-
...SOUTHWEST COLORADO...

CITY           SKY/WX    TMP DP  RH WIND       PRES   REMARKS
DURANGO        FAIR      79  25  13 W24G31    29.90F
CORTEZ         FAIR      83  23  11 W13G31    29.86F
PAGOSA SPRINGS FAIR      75  19  12 SW25G38   29.93F
TELLURIDE      CLOUDY    65  26  23 W10G17    30.08F
WOLF CREEK PAS FAIR      50  28  43 SW14      30.27F
$$

COZ009-010-012-014-032>034-037-058>063-242300-
...CENTRAL COLORADO...

CITY           SKY/WX    TMP DP  RH WIND       PRES   REMARKS
ASPEN          PTSUNNY   67  30  25 SW10G18   29.89F
BUENA VISTA    FAIR      72  22  15 W22G32    29.90F
COPPER MTN     FAIR      52  23  32 W23G36    30.15R
BERTHOUD PASS  FAIR      41  32  70 W26G46    30.14S
COTTONWOOD PAS FAIR      68  19  15 W10G25    30.03S
GUNNISON       FAIR      72  28  19 W18G33    29.91F
KREMMLING      CLOUDY    73  32  21 SW20G28   29.84F
LEADVILLE      PTSUNNY   58  22  24 W16G24    30.02F
MONARCH PASS   FAIR      48  25  40 W43G59    30.26F
SALIDA         FAIR      76  19  11 W23G36    29.94F
SUNLIGHT       FAIR      55  27  33 SW17G33   30.11F
WILKERSON PASS FAIR      54  23  30 W12G25    30.12F
$$

COZ069>075-242300-
...SAN LUIS VALLEY/SANGRE DE CRISTO MOUNTAINS...

CITY           SKY/WX    TMP DP  RH WIND       PRES   REMARKS
ALAMOSA        FAIR      73  28  18 SW12      29.89F
DEL NORTE      CLOUDY    72  28  19 SW14G21   29.92F
LA VETA PASS   FAIR      63  27  25 MISG      30.16F
SAGUACHE       FAIR      72  27  18 NW23G39   29.92F
$$

COZ035-036-038>040-242300-
...NORTHERN COLORADO FRONT RANGE...

CITY           SKY/WX    TMP DP  RH WIND       PRES   REMARKS
DENVER INTL AP FAIR      83  33  16 W20G28    29.64F
DMNS CITY PARK   N/A     82  31  16 W8G21     29.63F
AURORA         MOSUNNY   82  36  19 W12G21    29.66F
FRONT RANGE AP NOT AVBL
ERIE MUNI ARPT FAIR      83  30  15 W12G26    29.62F
BOULDER MUN AP FAIR      82  32  16 W7G20     29.62F
CENTENNIAL     FAIR      81  31  16 NW15G22   29.68F
BROOMFIELD     NOT AVBL
FORT COLLINS   FAIR      83  36  18 W12G17    29.61F
LONGMONT       FAIR      86  32  14 SW6       29.63F
$$

COZ041-046-047-076>085-087-088-242300-
...PIKES PEAK/PALMER DIVIDE AND SOUTHERN FOOTHILLS...

CITY           SKY/WX    TMP DP  RH WIND       PRES   REMARKS
COLO. SPRINGS  FAIR      81  37  20 SW7       29.73F
A. F. ACADEMY  FAIR      79  21  11 NW15G29   29.73F
SCHRIEVER AFB  FAIR      77  37  23 S12G18    29.73F
CHEYENNE MTN   FAIR      76  23  14 N9        29.72F
ELLICOTT       FAIR     N/A N/A N/A S12       29.71F
FALCON         FAIR      79  29  16 W6        29.78F
FORT CARSON    FAIR      80  38  22 SE12      29.69F
LIMON          FAIR      78  39  24 S14G22    29.68F
MONUMENT HILL  FAIR      73  28  19 W6G16     29.79F
CANON CITY     NOT AVBL
WALSENBURG     FAIR      82  30  15 W21       29.72F
TRINIDAD       FAIR      80  38  22 SE12      29.74F
$$

COZ042>045-048>051-090-091-242300-
...NORTHEAST COLORADO...

CITY           SKY/WX    TMP DP  RH WIND       PRES   REMARKS
GREELEY ARPT   FAIR      84  38  19 SW8G17    29.60F
AKRON          FAIR      80  39  23 SW10G18   29.61F
BURLINGTON     FAIR      75  47  36 S9G22     29.66F
WRAY           FAIR      81  43  26 S10G20    29.58F
YUMA           NOT AVBL
STERLING       FAIR      82  43  24 W12       29.54F
HOLYOKE        NOT AVBL
FORT MORGAN    FAIR      83  33  16 SW10G18   29.61S
$$

COZ086-089-092>099-242300-
...SOUTHEAST COLORADO...

CITY           SKY/WX    TMP DP  RH WIND       PRES   REMARKS
PUEBLO         FAIR      86  39  19 SE13      29.61F
LA JUNTA       FAIR      84  38  19 S9G21     29.63F
LAMAR          FAIR      82  39  21 VRB7      29.62F
SPRINGFIELD      N/A     79  42  26 S13       29.70F
$$




USA.gov is the U.S. government's official web portal to all federal, state and local government web resources and services.